Current weather by "City, St" or "zip code"  
 

Current Conditions: Houston Southwest Airport, TX

Fair


44.0 F

Last Updated on Oct 31 2020, 12:55 am CDT
Humidity: 100%
Wind Speed: N 0.0 mph
Barometer 30.24 in
Dewpoint: 43.5 F
Visibility: 10.00 mi
Precip: --
Heat Index: NA
Wind Chill: NA
Current conditions at:

Houston Southwest Airport, TX (KAXH)

Lat: 29.50613 Lon: 95.47692

Local Radar Image active severe weather and emergency alerts image image weather storm and storm spotter reports image weather observation monitoring service image
Local
Radar
Active
Alerts
Storm Reports Obs
Monitoring

Sign-up For Email & Text Message Weather Alert Notification Services



Advertise Here

Observation History for Houston Southwest Airport, TX


Time Wind
(mph)
Vis
(mi)
Weather Precip (in) Temperature (F) Relative
Humidity
Wind
Chill
(F)
Heat
Index
(F)
Pressure
Air Dwpt altimeter
(in)
sea level
(mb)
Rmks
12:55 am CDT N 0.0 10.00 Fair -- 44.0 43.5 100% NA NA 30.24 M
11:55 pm CDT N 0.0 10.00 Fair -- 44.0 44.4 100% NA NA 30.24 M
10:55 pm CDT N 0.0 10.00 Fair -- 45.0 44.8 98% NA NA 30.23 M
9:55 pm CDT N 0.0 10.00 Fair -- 46.0 45.3 97% NA NA 30.22 M
8:55 pm CDT N 0.0 10.00 Fair -- 49.0 47.7 94% NA NA 30.21 M
7:55 pm CDT N 0.0 10.00 Fair -- 52.0 47.1 84% NA NA 30.21 M
6:55 pm CDT N 0.0 10.00 Fair -- 61.0 43.2 52% NA NA 30.19 M
5:55 pm CDT N 0.0 10.00 Fair -- 66.0 42.3 42% NA NA 30.19 M
4:55 pm CDT N 0.0 10.00 Fair -- 68.0 43.3 41% NA NA 30.20 M
3:55 pm CDT N 0.0 10.00 Fair -- 67.0 43.2 43% NA NA 30.21 M
2:55 pm CDT N 0.0 10.00 Fair -- 65.0 44.8 48% NA NA 30.23 M
1:55 pm CDT N 0.0 10.00 Fair -- 64.0 45.9 52% NA NA 30.26 M
12:55 pm CDT N 0.0 10.00 Fair -- 62.0 45.9 56% NA NA 30.30 M
11:55 am CDT E 5.8 10.00 Fair -- 58.0 46.2 64% 57 NA 30.32 M
10:55 am CDT E 3.5 10.00 Partly Cloudy -- 58.0 46.6 66% NA NA 30.32 M
9:55 am CDT NE 8.1 10.00 Fair -- 54.0 45.3 72% 52 NA 30.31 M
8:55 am CDT NE 3.5 10.00 Fair -- 50.0 43.9 80% NA NA 30.29 M
7:55 am CDT N 0.0 10.00 Fair -- 47.0 42.8 87% NA NA 30.27 M
6:55 am CDT NE 5.8 10.00 Fair -- 47.0 43.0 84% 44 NA 30.24 M
5:55 am CDT N 4.6 10.00 Fair -- 48.0 43.7 85% 46 NA 30.23 M
4:55 am CDT N 3.5 10.00 Fair -- 48.0 44.2 86% NA NA 30.22 M
3:55 am CDT N 4.6 10.00 Fair -- 49.0 44.6 83% 47 NA 30.22 M
2:55 am CDT NE 4.6 10.00 Fair -- 51.0 45.0 79% 50 NA 30.22 M
1:55 am CDT N 6.9 10.00 Fair -- 52.0 45.1 78% 50 NA 30.21 M

Regional Weather Observation


Houston Southwest Airport, TX (KAXH)

Fair
44.0 F

Houston, Houston Hobby Airport, TX (KHOU)

Fair
54.0 F

Houston, Pearland Regional Airport, TX (KLVJ)

Fair
49.0 F

Angleton / Lake Jackson, Brazoria County Airport, TX (KLBX)

Fair
45.0 F

Houston, Hooks Memorial Airport, TX (KDWH)

Fair
46.0 F

Wharton, Wharton Regional Airport, TX (KARM)

Fair
44.0 F